GW5329 Weather Reports


Display with metric or nautical units.
time (UTC)temp
F
wind
direction
speed
MPH
gust
MPH
rain 1hr
in
rain 24hr
in
rain mn
in
humidity
%
barometer
mb
20260504201847 68 198 2.0 13.0 0.00 0.00 0.00 32 751.8
20260504201346 68 205 2.0 13.0 0.00 0.00 0.00 32 755.9
20260504200845 68 189 0.0 13.0 0.00 0.00 0.00 33 742.4
20260504200345 68 212 3.0 13.0 0.00 0.00 0.00 32 769.6
20260504195844 68 217 4.0 13.0 0.00 0.00 0.00 31 741.2
20260504195343 68 195 2.0 20.0 0.00 0.00 0.00 32 770.3
20260504194841 69 222 4.0 20.0 0.00 0.00 0.00 31 797.0
20260504194341 69 270 2.0 12.0 0.00 0.00 0.00 32 789.2
20260504193324 69 204 2.0 12.0 0.00 0.00 0.00 31 692.8
20260504192823 69 168 1.0 12.0 0.00 0.00 0.00 33 643.8
20260504191806 69 303 1.0 14.0 0.00 0.00 0.00 32 809.9
20260504191305 69 183 6.0 14.0 0.00 0.00 0.00 30 744.8
20260504190248 70 294 2.0 11.0 0.00 0.00 0.00 30 797.7
20260504185747 69 338 3.0 13.0 0.00 0.00 0.00 32 805.9
20260504185246 69 222 4.0 13.0 0.00 0.00 0.00 30 799.3
20260504184744 69 212 3.0 11.0 0.00 0.00 0.00 29 791.6
20260504184244 69 227 0.0 12.0 0.00 0.00 0.00 29 790.8
20260504183743 69 205 3.0 12.0 0.00 0.00 0.00 29 770.0
20260504183242 69 176 2.0 12.0 0.00 0.00 0.00 29 781.5
20260504182741 69 218 3.0 12.0 0.00 0.00 0.00 30 830.1
20260504181724 69 204 4.0 12.0 0.00 0.00 0.00 28 815.4
20260504181223 70 115 2.0 11.0 0.00 0.00 0.00 28 834.7
20260504180722 70 181 1.0 11.0 0.00 0.00 0.00 29 846.1
20260504180221 69 308 1.0 11.0 0.00 0.00 0.00 29 914.1
20260504175720 69 236 2.0 11.0 0.00 0.00 0.00 28 897.2
20260504175219 68 237 3.0 11.0 0.00 0.00 0.00 30 777.0
20260504174718 68 193 2.0 11.0 0.00 0.00 0.00 29 734.1
20260504173701 67 207 6.0 12.0 0.00 0.00 0.00 28 797.9
20260504173201 67 208 3.0 11.0 0.00 0.00 0.00 28 822.4
20260504172144 67 10 2.0 11.0 0.00 0.00 0.00 30 811.3
20260504171643 67 219 3.0 12.0 0.00 0.00 0.00 31 763.5
20260504170626 67 264 1.0 12.0 0.00 0.00 0.00 31 769.1
20260504150952 64 234 1.0 12.0 0.00 0.00 0.00 35 710.7
20260504150451 63 321 2.0 11.0 0.00 0.00 0.00 37 779.8
20260504130329 58 237 2.0 12.0 0.00 0.00 0.00 43 888.2
20260504120249 50 202 0.0 12.0 0.00 0.00 0.00 58 761.3
20260504090104 36 44 0.0 12.0 0.00 0.00 0.00 83 286.4
20260504081542 37 44 0.0 12.0 0.00 0.00 0.00 78 285.7
20260504081041 38 44 0.0 12.0 0.00 0.00 0.00 78 285.7
20260504080541 38 44 0.0 12.0 0.00 0.00 0.00 77 285.8
20260504050325 34 35 0.0 12.0 0.00 0.00 0.00 86 258.3
20260504045824 34 35 0.0 12.0 0.00 0.00 0.00 86 258.2
20260504045323 34 35 0.0 12.0 0.00 0.00 0.00 87 258.4
20260504044822 34 35 0.0 12.0 0.00 0.00 0.00 86 258.6
20260504044321 34 35 0.0 12.0 0.00 0.00 0.00 86 258.5
20260504043820 34 35 0.0 12.0 0.00 0.00 0.00 86 258.4
20260504043319 34 35 0.0 12.0 0.00 0.00 0.00 85 258.3
20260504042304 34 35 0.0 12.0 0.00 0.00 0.00 86 258.4
20260504041801 34 35 0.0 12.0 0.00 0.00 0.00 85 258.4
20260504041300 34 35 0.0 12.0 0.00 0.00 0.00 84 258.2
20260504040759 34 35 0.0 12.0 0.00 0.00 0.00 85 258.1
20260504040258 34 35 0.0 12.0 0.00 0.00 0.00 86 258.1
20260504035241 34 35 0.0 12.0 0.00 0.00 0.00 85 258.6
20260504034740 34 35 0.0 12.0 0.00 0.00 0.00 85 258.7
20260504034239 34 35 0.0 12.0 0.00 0.00 0.00 85 259.1
20260504033738 34 35 0.0 12.0 0.00 0.00 0.00 85 259.1
20260504032205 34 35 0.0 12.0 0.00 0.00 0.00 84 258.7
20260504031705 34 35 0.0 12.0 0.00 0.00 0.00 83 258.7
20260504031204 34 35 0.0 12.0 0.00 0.00 0.00 83 258.7
20260504030703 35 35 0.0 12.0 0.00 0.00 0.00 83 258.7
20260504030203 35 35 0.0 12.0 0.00 0.00 0.00 83 258.6
20260504025702 35 35 0.0 12.0 0.00 0.00 0.00 82 258.6
20260504025201 35 35 0.0 12.0 0.00 0.00 0.00 82 258.6
20260504024700 35 35 0.0 12.0 0.00 0.00 0.00 82 258.8
20260504024159 35 35 0.0 12.0 0.00 0.00 0.00 82 258.9
20260504023658 35 35 0.0 12.0 0.00 0.00 0.00 82 258.8
20260504023157 35 35 0.0 12.0 0.00 0.00 0.00 80 258.7
20260504022656 36 35 0.0 12.0 0.00 0.00 0.00 81 258.9
20260504022155 36 35 0.0 12.0 0.00 0.00 0.00 80 259.0
20260504021138 36 35 0.0 12.0 0.00 0.00 0.00 79 258.9
20260504020637 36 35 0.0 12.0 0.00 0.00 0.00 79 258.9
20260504020136 36 35 0.0 12.0 0.00 0.00 0.00 79 258.8
20260504015635 36 35 0.0 12.0 0.00 0.00 0.00 78 259.0
20260504015135 37 35 0.0 12.0 0.00 0.00 0.00 78 259.0
20260504014633 37 35 0.0 12.0 0.00 0.00 0.00 77 258.9
20260504014133 37 35 0.0 12.0 0.00 0.00 0.00 76 259.0
20260504013632 37 35 0.0 12.0 0.00 0.00 0.00 75 259.0
20260504013131 38 35 0.0 12.0 0.00 0.00 0.00 74 258.8
20260504012630 38 35 0.0 12.0 0.00 0.00 0.00 73 258.6
20260504012129 38 35 0.0 12.0 0.00 0.00 0.00 73 258.6
20260504011628 39 35 0.0 12.0 0.00 0.00 0.00 73 258.7
20260504011127 39 35 0.0 12.0 0.00 0.00 0.00 73 258.5
20260504010626 39 35 0.0 12.0 0.00 0.00 0.00 71 258.6
20260504005609 40 35 0.0 12.0 0.00 0.00 0.00 69 258.7
20260504005108 41 35 0.0 12.0 0.00 0.00 0.00 68 258.8
20260504004607 41 35 0.0 12.0 0.00 0.00 0.00 68 258.7
20260504004106 42 35 0.0 12.0 0.00 0.00 0.00 66 258.8
20260504003605 42 35 0.0 12.0 0.00 0.00 0.00 66 258.9
20260504003104 42 35 0.0 12.0 0.00 0.00 0.00 65 259.0
20260504002603 43 35 0.0 12.0 0.00 0.00 0.00 62 259.2
20260504002103 44 35 0.0 12.0 0.00 0.00 0.00 62 259.4
20260504001603 44 35 0.0 12.0 0.00 0.00 0.00 61 259.7
20260504001101 45 35 0.0 12.0 0.00 0.00 0.00 62 259.9
20260504000600 45 35 0.0 12.0 0.00 0.00 0.00 60 260.3
20260504000100 46 35 0.0 12.0 0.00 0.00 0.00 59 260.8
20260503235558 46 35 0.0 12.0 0.00 0.00 0.00 56 261.5
20260503235057 47 35 0.0 12.0 0.00 0.00 0.00 59 262.6
20260503233525 48 35 0.0 12.0 0.00 0.00 0.00 52 276.2
20260503231953 49 35 0.0 12.0 0.00 0.00 0.00 46 384.7
20260503231452 49 35 0.0 12.0 0.00 0.00 0.00 46 509.3
20260503230950 50 35 0.0 12.0 0.00 0.00 0.00 48 766.2
20260503230450 50 342 0.0 12.0 0.00 0.00 0.00 44 1116.4
20260503225949 50 342 0.0 12.0 0.00 0.00 0.00 41 1059.5
20260503224932 50 341 0.0 12.0 0.00 0.00 0.00 40 692.6
20260503224431 50 44 2.0 12.0 0.00 0.00 0.00 39 254.7
20260503223930 51 12 0.0 12.0 0.00 0.00 0.00 40 235.8
20260503223428 51 0 1.0 12.0 0.00 0.00 0.00 41 285.3
20260503222928 51 5 1.0 12.0 0.00 0.00 0.00 39 402.4
20260503222427 51 29 1.0 12.0 0.00 0.00 0.00 40 601.7
20260503221926 51 345 2.0 12.0 0.00 0.00 0.00 38 617.6
20260503221426 51 22 2.0 12.0 0.00 0.00 0.00 37 732.4
20260503220925 51 272 0.0 12.0 0.00 0.00 0.00 39 941.9
20260503220425 51 219 0.0 12.0 0.00 0.00 0.00 40 952.4
20260503215924 51 359 1.0 12.0 0.00 0.00 0.00 41 978.8
20260503215423 51 299 0.0 12.0 0.00 0.00 0.00 41 833.0
20260503214922 51 311 2.0 12.0 0.00 0.00 0.00 38 608.5
20260503214421 51 57 1.0 12.0 0.00 0.00 0.00 40 427.4
20260503213920 51 37 2.0 12.0 0.00 0.00 0.00 40 535.5
20260503213419 51 25 3.0 12.0 0.00 0.00 0.00 38 537.4
20260503212918 51 57 1.0 12.0 0.00 0.00 0.00 41 638.2
20260503212417 51 354 1.0 12.0 0.00 0.00 0.00 41 764.8
20260503211916 51 359 0.0 12.0 0.00 0.00 0.00 42 799.0
20260503211415 51 7 2.0 12.0 0.00 0.00 0.00 38 338.6
20260503210914 51 33 2.0 12.0 0.00 0.00 0.00 38 407.1
20260503210413 51 353 2.0 12.0 0.00 0.00 0.00 38 570.1
20260503205912 51 76 0.0 12.0 0.00 0.00 0.00 41 418.0
20260503205411 51 17 1.0 12.0 0.00 0.00 0.00 40 486.8
20260503204910 51 63 1.0 12.0 0.00 0.00 0.00 39 603.2
20260503204409 51 284 2.0 12.0 0.00 0.00 0.00 38 728.7
20260503202836 51 340 2.0 12.0 0.00 0.00 0.00 40 621.7